When you browse on this site, cookies collect data to enhance your experience and personalize the content and advertising you see.
Visit our Privacy Policy to learn more. By continuing to use the site, you agree to this use of cookies and data.
  • En España
  • Lista de países
  • Para 7 días
  • Temperatura del agua
  • El tiempo en el mapa
  • Informadores
  • user-avatar
    Iniciar sesión

    Tiempo cada hora Mongu

    Hoy, 18 Febrero, Martes

    Tiempo Temperatura Precipitaciones Viento Presión Humedad
    00:00 +23°C° 0 mm 1 mps 673 mmHg 83%
    01:00 +23°C° 0 mm 1 mps 673 mmHg 85%
    02:00 +22°C° 0 mm 1 mps 673 mmHg 87%
    03:00 +22°C° 0.1 mm 1 mps 673 mmHg 88%
    04:00 +22°C° 0.1 mm 1 mps 673 mmHg 90%
    05:00 +21°C° 0.1 mm 1 mps 672 mmHg 92%
    06:00 +22°C° 0.3 mm 1 mps 673 mmHg 90%
    07:00 +23°C° 0.3 mm 1 mps 674 mmHg 88%
    08:00 +23°C° 0.3 mm 1 mps 675 mmHg 86%
    09:00 +25°C° 0.5 mm 2 mps 675 mmHg 80%
    10:00 +27°C° 0.5 mm 2 mps 675 mmHg 74%
    11:00 +29°C° 0.5 mm 2 mps 675 mmHg 68%
    12:00 +29°C° 3.2 mm 2 mps 674 mmHg 67%
    13:00 +29°C° 3.2 mm 2 mps 674 mmHg 67%
    14:00 +29°C° 3.2 mm 1 mps 673 mmHg 67%
    15:00 +29°C° 1.2 mm 1 mps 673 mmHg 67%
    16:00 +29°C° 1.2 mm 1 mps 672 mmHg 67%
    17:00 +27°C° 1.2 mm 0 mps 672 mmHg 67%
    18:00 +28°C° 0 mm 1 mps 672 mmHg 70%
    19:00 +26°C° 0 mm 1 mps 672 mmHg 73%
    20:00 +25°C° 0 mm 1 mps 672 mmHg 76%
    21:00 +25°C° 0 mm 1 mps 673 mmHg 78%
    22:00 +24°C° 0 mm 1 mps 673 mmHg 79%
    23:00 +24°C° 0 mm 1 mps 673 mmHg 80%

    Mañana, 19 Febrero, Miércoles

    Tiempo Temperatura Precipitaciones Viento Presión Humedad
    00:00 +24°C° 0.1 mm 1 mps 673 mmHg 82%
    01:00 +24°C° 0.1 mm 1 mps 673 mmHg 83%
    02:00 +23°C° 0.1 mm 2 mps 673 mmHg 84%
    03:00 +23°C° 0.2 mm 2 mps 672 mmHg 86%
    04:00 +23°C° 0.2 mm 2 mps 672 mmHg 87%
    05:00 +21°C° 0.2 mm 2 mps 672 mmHg 89%
    06:00 +23°C° 0.1 mm 2 mps 672 mmHg 88%
    07:00 +23°C° 0.1 mm 2 mps 673 mmHg 88%
    08:00 +24°C° 0.1 mm 3 mps 674 mmHg 87%
    09:00 +25°C° 0.7 mm 3 mps 674 mmHg 81%
    10:00 +27°C° 0.7 mm 3 mps 674 mmHg 75%
    11:00 +29°C° 0.7 mm 3 mps 674 mmHg 70%
    12:00 +29°C° 1.2 mm 3 mps 674 mmHg 68%
    13:00 +30°C° 1.2 mm 3 mps 673 mmHg 67%
    14:00 +30°C° 1.2 mm 2 mps 672 mmHg 65%
    15:00 +30°C° 0.5 mm 2 mps 672 mmHg 64%
    16:00 +30°C° 0.5 mm 1 mps 672 mmHg 63%
    17:00 +30°C° 0.5 mm 1 mps 671 mmHg 62%
    18:00 +29°C° 0.2 mm 1 mps 671 mmHg 67%
    19:00 +25°C° 0.2 mm 0 mps 672 mmHg 72%
    20:00 +24°C° 0.2 mm 0 mps 672 mmHg 77%
    21:00 +25°C° 2.8 mm 1 mps 672 mmHg 81%
    22:00 +25°C° 2.8 mm 1 mps 672 mmHg 84%
    23:00 +24°C° 2.8 mm 1 mps 673 mmHg 88%

    Pasado mañana, 20 Febrero, Jueves

    Tiempo Temperatura Precipitaciones Viento Presión Humedad
    00:00 +24°C° 1.6 mm 1 mps 673 mmHg 88%
    01:00 +24°C° 1.6 mm 2 mps 672 mmHg 89%
    02:00 +23°C° 1.6 mm 2 mps 672 mmHg 89%
    03:00 +23°C° 2.5 mm 2 mps 672 mmHg 91%
    04:00 +21°C° 2.5 mm 2 mps 672 mmHg 94%
    05:00 +21°C° 2.5 mm 2 mps 672 mmHg 97%
    06:00 +21°C° 1.9 mm 3 mps 672 mmHg 96%
    07:00 +21°C° 1.9 mm 3 mps 673 mmHg 95%
    08:00 +21°C° 1.9 mm 4 mps 673 mmHg 94%
    09:00 +21°C° 0.2 mm 3 mps 673 mmHg 93%
    10:00 +21°C° 0.2 mm 3 mps 673 mmHg 93%
    11:00 +21°C° 0.2 mm 3 mps 673 mmHg 92%
    12:00 +24°C° 0 mm 3 mps 673 mmHg 85%
    13:00 +26°C° 0 mm 3 mps 673 mmHg 78%
    14:00 +27°C° 0 mm 3 mps 672 mmHg 71%
    15:00 +27°C° 0 mm 3 mps 672 mmHg 71%
    16:00 +27°C° 0 mm 2 mps 672 mmHg 70%
    17:00 +28°C° 0 mm 2 mps 671 mmHg 70%
    18:00 +26°C° 0 mm 2 mps 671 mmHg 74%
    19:00 +25°C° 0 mm 1 mps 671 mmHg 79%
    20:00 +23°C° 0 mm 1 mps 672 mmHg 83%
    21:00 +23°C° 0 mm 1 mps 672 mmHg 83%
    22:00 +23°C° 0 mm 1 mps 672 mmHg 84%
    23:00 +22°C° 0 mm 1 mps 672 mmHg 84%

    21 Febrero, Viernes

    Tiempo Temperatura Precipitaciones Viento Presión Humedad
    00:00 +22°C° 0 mm 1 mps 672 mmHg 85%
    01:00 +22°C° 0 mm 1 mps 672 mmHg 87%
    02:00 +21°C° 0 mm 1 mps 672 mmHg 88%
    03:00 +21°C° 0 mm 1 mps 672 mmHg 89%
    04:00 +21°C° 0 mm 1 mps 672 mmHg 90%
    05:00 +21°C° 0 mm 1 mps 672 mmHg 92%
    06:00 +22°C° 0 mm 1 mps 672 mmHg 89%
    07:00 +22°C° 0 mm 1 mps 673 mmHg 87%
    08:00 +23°C° 0 mm 1 mps 673 mmHg 85%
    15:00 +30°C° 0.8 mm 1 mps 672 mmHg 63%
    16:00 +30°C° 0.8 mm 1 mps 672 mmHg 65%
    17:00 +29°C° 0.8 mm 1 mps 671 mmHg 67%
    18:00 +28°C° 0.3 mm 1 mps 671 mmHg 72%
    19:00 +26°C° 0.3 mm 1 mps 671 mmHg 77%
    20:00 +23°C° 0.3 mm 0 mps 671 mmHg 81%
    21:00 +22°C° 0 mm 0 mps 672 mmHg 81%
    22:00 +22°C° 0 mm 0 mps 672 mmHg 81%
    23:00 +22°C° 0 mm 0 mps 673 mmHg 81%

    22 Febrero, Sábado

    Tiempo Temperatura Precipitaciones Viento Presión Humedad
    00:00 +21°C° 0 mm 0 mps 672 mmHg 83%
    01:00 +21°C° 0 mm 0 mps 672 mmHg 84%
    02:00 +21°C° 0 mm 0 mps 671 mmHg 86%
    03:00 +21°C° 0.2 mm 0 mps 671 mmHg 87%
    04:00 +22°C° 0.2 mm 1 mps 671 mmHg 89%
    05:00 +22°C° 0.2 mm 1 mps 672 mmHg 91%
    06:00 +22°C° 0.6 mm 1 mps 672 mmHg 91%
    07:00 +23°C° 0.6 mm 1 mps 673 mmHg 91%
    08:00 +23°C° 0.6 mm 2 mps 673 mmHg 92%
    09:00 +25°C° 0.5 mm 2 mps 673 mmHg 86%
    10:00 +26°C° 0.5 mm 3 mps 674 mmHg 81%
    11:00 +27°C° 0.5 mm 3 mps 674 mmHg 76%
    12:00 +28°C° 1 mm 3 mps 673 mmHg 72%
    13:00 +30°C° 1 mm 3 mps 673 mmHg 67%
    14:00 +31°C° 1 mm 2 mps 672 mmHg 63%
    15:00 +31°C° 0.2 mm 2 mps 672 mmHg 62%
    16:00 +31°C° 0.2 mm 2 mps 672 mmHg 61%
    17:00 +31°C° 0.2 mm 1 mps 672 mmHg 60%
    18:00 +29°C° 0.1 mm 1 mps 672 mmHg 65%
    19:00 +27°C° 0.1 mm 1 mps 672 mmHg 71%
    20:00 +24°C° 0.1 mm 0 mps 672 mmHg 77%
    21:00 +23°C° 0.7 mm 0 mps 672 mmHg 81%
    22:00 +24°C° 0.7 mm 1 mps 672 mmHg 85%
    23:00 +24°C° 0.7 mm 1 mps 672 mmHg 89%

    23 Febrero, Domingo

    Tiempo Temperatura Precipitaciones Viento Presión Humedad
    00:00 +23°C° 0.7 mm 1 mps 671 mmHg 90%
    01:00 +23°C° 0.7 mm 1 mps 671 mmHg 91%
    02:00 +23°C° 0.7 mm 1 mps 671 mmHg 93%
    03:00 +22°C° 0 mm 1 mps 671 mmHg 93%
    04:00 +22°C° 0 mm 1 mps 671 mmHg 94%
    05:00 +22°C° 0 mm 1 mps 671 mmHg 95%
    06:00 +22°C° 0.2 mm 1 mps 671 mmHg 93%
    07:00 +23°C° 0.2 mm 2 mps 672 mmHg 92%
    08:00 +23°C° 0.2 mm 2 mps 672 mmHg 91%
    09:00 +25°C° 0.6 mm 2 mps 672 mmHg 85%
    10:00 +27°C° 0.6 mm 3 mps 673 mmHg 79%
    11:00 +28°C° 0.6 mm 3 mps 673 mmHg 73%
    12:00 +29°C° 1.1 mm 3 mps 672 mmHg 69%
    13:00 +30°C° 1.1 mm 3 mps 672 mmHg 64%
    14:00 +31°C° 1.1 mm 3 mps 671 mmHg 60%
    15:00 +30°C° 2.3 mm 2 mps 671 mmHg 66%
    16:00 +29°C° 2.3 mm 2 mps 670 mmHg 72%
    17:00 +28°C° 2.3 mm 2 mps 670 mmHg 77%
    18:00 +27°C° 3.4 mm 1 mps 670 mmHg 81%
    19:00 +26°C° 3.4 mm 1 mps 670 mmHg 85%
    20:00 +24°C° 3.4 mm 1 mps 671 mmHg 88%
    21:00 +24°C° 1.6 mm 2 mps 671 mmHg 90%
    22:00 +23°C° 1.6 mm 2 mps 671 mmHg 91%
    23:00 +23°C° 1.6 mm 2 mps 672 mmHg 92%
    Mostrar más